This is the latest recevied weather packets stored in our database for station/object K4DNM. If no packets are shown the sender has not sent any weather packets the latest 10 day(s).
| Time | Temp. | Humidity | Pressure | Rain* | Wind** | Luminosity | Snow |
|---|---|---|---|---|---|---|---|
| 1777738581 | 11.11° C | 98% | 1012.8 hPa | 1.27 mm | - | 75 W/m² | - |
| 1777738278 | 11.11° C | 97% | 1012.7 hPa | 1.02 mm | - | 80 W/m² | - |
| 1777737981 | 11.11° C | 98% | 1012.8 hPa | 1.02 mm | - | 90 W/m² | - |
| 1777737684 | 11.11° C | 98% | 1012.8 hPa | 1.02 mm | - | 87 W/m² | - |
| 1777737441 | 11.11° C | 98% | 1012.6 hPa | 1.02 mm | - | 79 W/m² | - |
| 1777737082 | 11.11° C | 98% | 1012.4 hPa | 1.02 mm | - | 81 W/m² | - |
| 1777736781 | 11.11° C | 98% | 1012.4 hPa | 1.27 mm | - | 85 W/m² | - |
| 1777736545 | 11.11° C | 98% | 1012.3 hPa | 1.52 mm | - | 87 W/m² | - |
| 1777736182 | 11.11° C | 98% | 1012.2 hPa | 1.78 mm | - | 105 W/m² | - |
| 1777735926 | 11.11° C | 98% | 1012.2 hPa | 2.03 mm | - | 102 W/m² | - |
| 1777735565 | 11.11° C | 98% | 1012.2 hPa | 2.29 mm | - | 126 W/m² | - |
| 1777735327 | 11.11° C | 98% | 1012.3 hPa | 2.29 mm | - | 134 W/m² | - |
| 1777734965 | 11.11° C | 98% | 1012.4 hPa | 2.29 mm | - | 108 W/m² | - |
| 1777734651 | 11.11° C | 98% | 1012.5 hPa | 2.29 mm | - | 95 W/m² | - |
| 1777734350 | 11.11° C | 98% | 1012.6 hPa | 2.29 mm | - | 88 W/m² | - |
| 1777734065 | 11.11° C | 98% | 1012.7 hPa | 2.54 mm | - | 74 W/m² | - |
| 1777733750 | 11.67° C | 98% | 1012.5 hPa | 2.29 mm | - | 95 W/m² | - |
| 1777733436 | 11.11° C | 99% | 1012.5 hPa | 2.29 mm | - | 92 W/m² | - |
| 1777733136 | 11.11° C | 98% | 1012.5 hPa | 2.03 mm | - | 79 W/m² | - |
| 1777732836 | 11.11° C | 98% | 1012.5 hPa | 1.78 mm | - | 62 W/m² | - |
| 1777732520 | 11.11° C | 98% | 1012.6 hPa | 1.52 mm | - | 57 W/m² | - |
| 1777732220 | 11.11° C | 98% | 1012.5 hPa | 1.27 mm | - | 54 W/m² | - |
| 1777731620 | 11.11° C | 98% | 1012.3 hPa | 1.02 mm | - | 39 W/m² | - |
| 1777731320 | 11.67° C | 98% | 1012.1 hPa | 1.02 mm | - | 39 W/m² | - |
| 1777731158 | 11.67° C | 98% | 1012 hPa | 0.76 mm | - | 43 W/m² | - |
* Rain latest hour (hover to see other rain measurements)
** Current wind speed in m/s (hover to see current wind gust speed)